Time,TemperatureF,DewpointF,PressureIn,WindDirection,WindDirectionDegrees,WindSpeedMPH,WindSpeedGustMPH,Humidity,HourlyPrecipIn,Conditions,Clouds,dailyrainin,SoftwareType,DateUTC
2013-09-03 00:01:00,63.0,56.4,29.89,North,0,3.0,10.0,79,0.00,,---,0.51,VWS V14.01,2013-09-03 04:01:00,
2013-09-03 00:02:00,63.0,56.0,29.89,NNW,338,5.0,6.0,78,0.00,,---,0.00,VWS V14.01,2013-09-03 04:02:00,
2013-09-03 00:07:00,63.0,56.4,29.89,NNW,338,6.0,6.0,79,0.00,,---,0.00,VWS V14.01,2013-09-03 04:07:00,
2013-09-03 00:12:00,63.0,56.4,29.89,NNW,338,5.0,7.0,79,0.00,,---,0.00,VWS V14.01,2013-09-03 04:12:00,
2013-09-03 00:17:00,63.0,56.4,29.88,NW,315,1.0,7.0,79,0.00,,---,0.00,VWS V14.01,2013-09-03 04:17:00,
2013-09-03 00:22:00,63.0,56.4,29.89,NNW,338,5.0,5.0,79,0.00,,---,0.00,VWS V14.01,2013-09-03 04:22:00,
2013-09-03 00:27:00,63.0,56.4,29.89,NNW,338,5.0,8.0,79,0.00,,---,0.00,VWS V14.01,2013-09-03 04:27:00,
2013-09-03 00:32:00,63.0,56.0,29.89,NW,315,3.0,8.0,78,0.00,,---,0.00,VWS V14.01,2013-09-03 04:32:00,
2013-09-03 00:37:00,63.0,56.4,29.89,NNW,338,5.0,8.0,79,0.00,,---,0.00,VWS V14.01,2013-09-03 04:37:00,
2013-09-03 00:42:00,62.0,55.1,29.89,NNW,338,5.0,7.0,78,0.00,,---,0.00,VWS V14.01,2013-09-03 04:42:00,
2013-09-03 00:47:00,62.0,55.4,29.89,North,0,3.0,7.0,79,0.00,,---,0.00,VWS V14.01,2013-09-03 04:47:00,
2013-09-03 00:52:00,63.0,56.7,29.89,North,0,3.0,7.0,80,0.00,,---,0.00,VWS V14.01,2013-09-03 04:52:00,
2013-09-03 00:57:00,62.0,55.8,29.89,NNW,338,5.0,7.0,80,0.00,,---,0.00,VWS V14.01,2013-09-03 04:57:00,
2013-09-03 01:03:00,63.0,57.1,29.88,NW,315,0.0,3.0,81,0.00,,---,0.00,VWS V14.01,2013-09-03 05:03:00,
2013-09-03 01:08:00,62.0,55.4,29.88,NNW,338,3.0,10.0,79,0.00,,---,0.00,VWS V14.01,2013-09-03 05:08:00,
2013-09-03 01:13:00,63.0,56.7,29.88,WNW,292,4.0,10.0,80,0.00,,---,0.00,VWS V14.01,2013-09-03 05:13:00,
2013-09-03 01:18:00,62.0,55.4,29.88,NW,315,3.0,10.0,79,0.00,,---,0.00,VWS V14.01,2013-09-03 05:18:00,
2013-09-03 01:23:00,62.0,55.4,29.88,WNW,292,5.0,5.0,79,0.00,,---,0.00,VWS V14.01,2013-09-03 05:23:00,
2013-09-03 01:28:00,62.0,55.4,29.88,WNW,292,5.0,9.0,79,0.00,,---,0.00,VWS V14.01,2013-09-03 05:28:00,
2013-09-03 01:33:00,62.0,55.8,29.88,WNW,292,4.0,9.0,80,0.00,,---,0.00,VWS V14.01,2013-09-03 05:33:00,
2013-09-03 01:38:00,62.0,55.8,29.88,West,270,7.0,9.0,80,0.00,,---,0.00,VWS V14.01,2013-09-03 05:38:00,
2013-09-03 01:43:00,62.0,56.1,29.88,WNW,292,6.0,9.0,81,0.00,,---,0.00,VWS V14.01,2013-09-03 05:43:00,
2013-09-03 01:48:00,62.0,56.1,29.88,WSW,248,5.0,9.0,81,0.00,,---,0.00,VWS V14.01,2013-09-03 05:48:00,
2013-09-03 01:53:00,62.0,56.1,29.88,WNW,292,5.0,9.0,81,0.00,,---,0.00,VWS V14.01,2013-09-03 05:53:00,
2013-09-03 01:58:00,62.0,56.1,29.88,West,270,5.0,9.0,81,0.00,,---,0.00,VWS V14.01,2013-09-03 05:58:00,
2013-09-03 02:03:00,62.0,56.1,29.88,WSW,248,6.0,8.0,81,0.00,,---,0.00,VWS V14.01,2013-09-03 06:03:00,
2013-09-03 02:09:00,62.0,56.1,29.88,WSW,248,6.0,8.0,81,0.00,,---,0.00,VWS V14.01,2013-09-03 06:09:00,
2013-09-03 02:14:00,61.0,55.5,29.88,West,270,5.0,8.0,82,0.00,,---,0.00,VWS V14.01,2013-09-03 06:14:00,
2013-09-03 02:19:00,61.0,55.5,29.88,West,270,3.0,8.0,82,0.00,,---,0.00,VWS V14.01,2013-09-03 06:19:00,
2013-09-03 02:24:00,61.0,55.5,29.88,WNW,292,5.0,7.0,82,0.00,,---,0.00,VWS V14.01,2013-09-03 06:24:00,
2013-09-03 02:29:00,61.0,55.5,29.88,West,270,6.0,11.0,82,0.00,,---,0.00,VWS V14.01,2013-09-03 06:29:00,
2013-09-03 02:34:00,61.0,55.8,29.87,WNW,292,6.0,11.0,83,0.00,,---,0.00,VWS V14.01,2013-09-03 06:34:00,
2013-09-03 02:39:00,61.0,55.8,29.87,West,270,5.0,11.0,83,0.00,,---,0.00,VWS V14.01,2013-09-03 06:39:00,
2013-09-03 02:44:00,61.0,55.8,29.88,West,270,4.0,11.0,83,0.00,,---,0.00,VWS V14.01,2013-09-03 06:44:00,
2013-09-03 02:49:00,61.0,55.8,29.88,WNW,292,4.0,11.0,83,0.00,,---,0.00,VWS V14.01,2013-09-03 06:49:00,
2013-09-03 02:54:00,61.0,55.8,29.88,West,270,7.0,11.0,83,0.00,,---,0.00,VWS V14.01,2013-09-03 06:54:00,
2013-09-03 02:59:00,61.0,55.8,29.88,West,270,3.0,11.0,83,0.00,,---,0.00,VWS V14.01,2013-09-03 06:59:00,
2013-09-03 03:04:00,61.0,56.1,29.88,WSW,248,5.0,6.0,84,0.00,,---,0.00,VWS V14.01,2013-09-03 07:04:00,
2013-09-03 03:09:00,61.0,56.1,29.88,WNW,292,1.0,8.0,84,0.00,,---,0.00,VWS V14.01,2013-09-03 07:09:00,
2013-09-03 03:14:00,61.0,56.1,29.88,WNW,292,3.0,8.0,84,0.00,,---,0.00,VWS V14.01,2013-09-03 07:14:00,
2013-09-03 03:20:00,61.0,56.5,29.88,WNW,292,7.0,8.0,85,0.00,,---,0.00,VWS V14.01,2013-09-03 07:20:00,
2013-09-03 03:25:00,61.0,56.1,29.88,NW,315,5.0,10.0,84,0.00,,---,0.00,VWS V14.01,2013-09-03 07:25:00,
2013-09-03 03:30:00,61.0,56.1,29.87,West,270,6.0,10.0,84,0.00,,---,0.00,VWS V14.01,2013-09-03 07:30:00,
2013-09-03 03:35:00,61.0,56.1,29.88,NW,315,5.0,10.0,84,0.00,,---,0.00,VWS V14.01,2013-09-03 07:35:00,
2013-09-03 03:40:00,61.0,56.1,29.88,NNW,338,3.0,11.0,84,0.00,,---,0.00,VWS V14.01,2013-09-03 07:40:00,
2013-09-03 03:45:00,61.0,56.5,29.88,NW,315,5.0,11.0,85,0.00,,---,0.00,VWS V14.01,2013-09-03 07:45:00,
2013-09-03 03:50:00,61.0,56.1,29.88,West,270,3.0,11.0,84,0.00,,---,0.00,VWS V14.01,2013-09-03 07:50:00,
2013-09-03 03:55:00,61.0,56.5,29.88,WNW,292,5.0,13.0,85,0.00,,---,0.00,VWS V14.01,2013-09-03 07:55:00,
2013-09-03 04:00:00,61.0,56.5,29.88,WNW,292,8.0,13.0,85,0.00,,---,0.00,VWS V14.01,2013-09-03 08:00:00,
2013-09-03 04:05:00,60.0,55.5,29.88,West,270,5.0,12.0,85,0.00,,---,0.00,VWS V14.01,2013-09-03 08:05:00,
2013-09-03 04:10:00,60.0,55.5,29.88,West,270,6.0,12.0,85,0.00,,---,0.00,VWS V14.01,2013-09-03 08:10:00,
2013-09-03 04:15:00,60.0,55.5,29.88,WSW,248,8.0,12.0,85,0.00,,---,0.00,VWS V14.01,2013-09-03 08:15:00,
2013-09-03 04:21:00,60.0,55.5,29.88,NNW,338,4.0,12.0,85,0.00,,---,0.00,VWS V14.01,2013-09-03 08:21:00,
2013-09-03 04:26:00,60.0,55.5,29.88,WNW,292,6.0,11.0,85,0.00,,---,0.00,VWS V14.01,2013-09-03 08:26:00,
2013-09-03 04:31:00,60.0,55.5,29.88,West,270,5.0,12.0,85,0.00,,---,0.00,VWS V14.01,2013-09-03 08:31:00,
2013-09-03 04:36:00,60.0,55.8,29.88,West,270,5.0,12.0,86,0.00,,---,0.00,VWS V14.01,2013-09-03 08:36:00,
2013-09-03 04:41:00,60.0,55.8,29.88,West,270,6.0,12.0,86,0.00,,---,0.00,VWS V14.01,2013-09-03 08:41:00,
2013-09-03 04:46:00,60.0,55.8,29.89,WNW,292,6.0,9.0,86,0.00,,---,0.00,VWS V14.01,2013-09-03 08:46:00,
2013-09-03 04:51:00,60.0,55.8,29.88,WNW,292,3.0,9.0,86,0.00,,---,0.00,VWS V14.01,2013-09-03 08:51:00,
2013-09-03 04:56:00,60.0,55.8,29.88,WNW,292,3.0,9.0,86,0.00,,---,0.00,VWS V14.01,2013-09-03 08:56:00,
2013-09-03 05:01:00,60.0,55.8,29.88,WNW,292,6.0,9.0,86,0.00,,---,0.00,VWS V14.01,2013-09-03 09:01:00,
2013-09-03 05:06:00,60.0,56.1,29.88,WNW,292,4.0,8.0,87,0.00,,---,0.00,VWS V14.01,2013-09-03 09:06:00,
2013-09-03 05:11:00,60.0,56.1,29.88,WNW,292,3.0,8.0,87,0.00,,---,0.00,VWS V14.01,2013-09-03 09:11:00,
2013-09-03 05:16:00,60.0,56.1,29.88,WNW,292,6.0,8.0,87,0.00,,---,0.00,VWS V14.01,2013-09-03 09:16:00,
2013-09-03 05:21:00,60.0,56.1,29.88,WNW,292,8.0,9.0,87,0.00,,---,0.00,VWS V14.01,2013-09-03 09:21:00,
2013-09-03 05:27:00,60.0,56.1,29.88,WNW,292,5.0,10.0,87,0.00,,---,0.00,VWS V14.01,2013-09-03 09:27:00,
2013-09-03 05:32:00,59.0,55.1,29.89,WSW,248,6.0,10.0,87,0.00,,---,0.00,VWS V14.01,2013-09-03 09:32:00,
2013-09-03 05:37:00,59.0,55.1,29.89,WNW,292,3.0,11.0,87,0.00,,---,0.00,VWS V14.01,2013-09-03 09:37:00,
2013-09-03 05:42:00,59.0,55.5,29.89,West,270,6.0,10.0,88,0.00,,---,0.00,VWS V14.01,2013-09-03 09:42:00,
2013-09-03 05:47:00,59.0,55.5,29.89,WNW,292,1.0,10.0,88,0.00,,---,0.00,VWS V14.01,2013-09-03 09:47:00,
2013-09-03 05:52:00,59.0,55.5,29.89,West,270,5.0,10.0,88,0.00,,---,0.00,VWS V14.01,2013-09-03 09:52:00,
2013-09-03 05:57:00,59.0,55.5,29.90,West,270,6.0,12.0,88,0.00,,---,0.00,VWS V14.01,2013-09-03 09:57:00,
2013-09-03 06:02:00,59.0,55.5,29.90,WNW,292,9.0,9.0,88,0.00,,---,0.00,VWS V14.01,2013-09-03 10:02:00,
2013-09-03 06:07:00,59.0,55.5,29.90,West,270,5.0,9.0,88,0.00,,---,0.00,VWS V14.01,2013-09-03 10:07:00,
2013-09-03 06:12:00,59.0,55.8,29.90,WNW,292,8.0,10.0,89,0.00,,---,0.00,VWS V14.01,2013-09-03 10:12:00,
2013-09-03 06:18:00,59.0,55.8,29.90,West,270,6.0,11.0,89,0.00,,---,0.00,VWS V14.01,2013-09-03 10:18:00,
2013-09-03 06:23:00,59.0,55.8,29.91,WSW,248,8.0,9.0,89,0.00,,---,0.00,VWS V14.01,2013-09-03 10:23:00,
2013-09-03 06:28:00,59.0,55.8,29.91,WSW,248,5.0,10.0,89,0.00,,---,0.00,VWS V14.01,2013-09-03 10:28:00,
2013-09-03 06:33:00,59.0,55.8,29.91,West,270,6.0,10.0,89,0.00,,---,0.00,VWS V14.01,2013-09-03 10:33:00,
2013-09-03 06:38:00,59.0,55.8,29.91,West,270,4.0,10.0,89,0.00,,---,0.00,VWS V14.01,2013-09-03 10:38:00,
2013-09-03 06:43:00,59.0,56.1,29.90,WSW,248,5.0,5.0,90,0.00,,---,0.00,VWS V14.01,2013-09-03 10:43:00,
2013-09-03 06:48:00,59.0,56.1,29.91,SW,225,6.0,6.0,90,0.00,,---,0.00,VWS V14.01,2013-09-03 10:48:00,
2013-09-03 06:53:00,59.0,56.1,29.91,WSW,248,4.0,6.0,90,0.00,,---,0.00,VWS V14.01,2013-09-03 10:53:00,
2013-09-03 06:59:00,59.0,56.4,29.91,SW,225,5.0,8.0,91,0.00,,---,0.00,VWS V14.01,2013-09-03 10:59:00,
2013-09-03 07:04:00,58.0,55.4,29.91,West,270,6.0,6.0,91,0.00,,---,0.00,VWS V14.01,2013-09-03 11:04:00,
2013-09-03 07:09:00,58.0,55.7,29.91,WSW,248,3.0,6.0,92,0.00,,---,0.00,VWS V14.01,2013-09-03 11:09:00,
2013-09-03 07:14:00,58.0,55.7,29.91,West,270,3.0,6.0,92,0.00,,---,0.00,VWS V14.01,2013-09-03 11:14:00,
2013-09-03 07:19:00,58.0,56.0,29.92,West,270,5.0,6.0,93,0.00,,---,0.00,VWS V14.01,2013-09-03 11:19:00,
2013-09-03 07:25:00,58.0,56.0,29.92,West,270,3.0,6.0,93,0.00,,---,0.00,VWS V14.01,2013-09-03 11:25:00,
2013-09-03 07:30:00,58.0,56.0,29.92,WSW,248,5.0,6.0,93,0.00,,---,0.00,VWS V14.01,2013-09-03 11:30:00,
2013-09-03 07:35:00,58.0,56.0,29.92,West,270,4.0,6.0,93,0.00,,---,0.00,VWS V14.01,2013-09-03 11:35:00,
2013-09-03 07:40:00,58.0,56.0,29.92,WNW,292,5.0,6.0,93,0.00,,---,0.00,VWS V14.01,2013-09-03 11:40:00,
2013-09-03 07:45:00,59.0,57.0,29.93,WNW,292,5.0,8.0,93,0.00,,---,0.00,VWS V14.01,2013-09-03 11:45:00,
2013-09-03 07:50:00,59.0,57.0,29.93,West,270,3.0,8.0,93,0.00,,---,0.00,VWS V14.01,2013-09-03 11:50:00,
2013-09-03 07:56:00,59.0,57.0,29.93,WSW,248,5.0,8.0,93,0.00,,---,0.00,VWS V14.01,2013-09-03 11:56:00,
2013-09-03 08:01:00,59.0,57.0,29.93,WNW,292,2.0,8.0,93,0.00,,---,0.00,VWS V14.01,2013-09-03 12:01:00,
2013-09-03 08:06:00,59.0,57.0,29.93,WSW,248,8.0,11.0,93,0.00,,---,0.00,VWS V14.01,2013-09-03 12:06:00,
2013-09-03 08:11:00,59.0,57.0,29.93,West,270,7.0,14.0,93,0.00,,---,0.00,VWS V14.01,2013-09-03 12:11:00,
2013-09-03 08:16:00,59.0,56.7,29.93,WNW,292,5.0,14.0,92,0.00,,---,0.00,VWS V14.01,2013-09-03 12:16:00,
2013-09-03 08:22:00,59.0,56.4,29.94,NW,315,6.0,8.0,91,0.00,,---,0.00,VWS V14.01,2013-09-03 12:22:00,
2013-09-03 08:27:00,59.0,56.4,29.94,WSW,248,4.0,9.0,91,0.00,,---,0.00,VWS V14.01,2013-09-03 12:27:00,
2013-09-03 08:32:00,59.0,55.5,29.93,NW,315,6.0,14.0,88,0.00,,---,0.00,VWS V14.01,2013-09-03 12:32:00,
2013-09-03 08:37:00,59.0,55.8,29.93,WNW,292,6.0,16.0,89,0.00,,---,0.00,VWS V14.01,2013-09-03 12:37:00,
2013-09-03 08:42:00,59.0,55.8,29.94,NW,315,1.0,6.0,89,0.00,,---,0.00,VWS V14.01,2013-09-03 12:42:00,
2013-09-03 08:47:00,59.0,55.5,29.93,West,270,6.0,11.0,88,0.00,,---,0.00,VWS V14.01,2013-09-03 12:47:00,
2013-09-03 08:53:00,59.0,55.1,29.94,WNW,292,8.0,14.0,87,0.00,,---,0.00,VWS V14.01,2013-09-03 12:53:00,
2013-09-03 08:58:00,59.0,55.1,29.94,NW,315,10.0,16.0,87,0.00,,---,0.00,VWS V14.01,2013-09-03 12:58:00,
2013-09-03 09:03:00,59.0,54.8,29.94,WNW,292,6.0,18.0,86,0.00,,---,0.00,VWS V14.01,2013-09-03 13:03:00,
2013-09-03 09:08:00,59.0,55.1,29.94,NW,315,6.0,18.0,87,0.00,,---,0.00,VWS V14.01,2013-09-03 13:08:00,
2013-09-03 09:13:00,59.0,55.1,29.94,WNW,292,15.0,18.0,87,0.00,,---,0.00,VWS V14.01,2013-09-03 13:13:00,
2013-09-03 09:18:00,59.0,54.8,29.94,NNW,338,5.0,18.0,86,0.00,,---,0.00,VWS V14.01,2013-09-03 13:18:00,
2013-09-03 09:24:00,60.0,55.8,29.94,NNW,338,8.0,14.0,86,0.00,,---,0.00,VWS V14.01,2013-09-03 13:24:00,
2013-09-03 09:29:00,60.0,55.8,29.94,NW,315,11.0,15.0,86,0.00,,---,0.00,VWS V14.01,2013-09-03 13:29:00,
2013-09-03 09:34:00,60.0,56.1,29.95,NW,315,7.0,15.0,87,0.00,,---,0.00,VWS V14.01,2013-09-03 13:34:00,
2013-09-03 09:39:00,60.0,56.1,29.94,West,270,4.0,15.0,87,0.00,,---,0.00,VWS V14.01,2013-09-03 13:39:00,
2013-09-03 09:44:00,60.0,56.4,29.95,WNW,292,9.0,12.0,88,0.00,,---,0.00,VWS V14.01,2013-09-03 13:44:00,
2013-09-03 09:49:00,60.0,57.1,29.95,WNW,292,4.0,12.0,90,0.00,,---,0.00,VWS V14.01,2013-09-03 13:49:00,
2013-09-03 09:54:00,59.0,56.4,29.95,NW,315,3.0,13.0,91,0.00,,---,0.00,VWS V14.01,2013-09-03 13:54:00,
2013-09-03 10:00:00,59.0,56.7,29.95,West,270,5.0,14.0,92,0.00,,---,0.00,VWS V14.01,2013-09-03 14:00:00,
2013-09-03 10:05:00,59.0,56.7,29.95,WNW,292,8.0,11.0,92,0.00,,---,0.00,VWS V14.01,2013-09-03 14:05:00,
2013-09-03 10:10:00,59.0,57.0,29.96,NW,315,3.0,13.0,93,0.00,,---,0.00,VWS V14.01,2013-09-03 14:10:00,
2013-09-03 10:15:00,59.0,57.0,29.96,West,270,8.0,16.0,93,0.00,,---,0.00,VWS V14.01,2013-09-03 14:15:00,
2013-09-03 10:20:00,59.0,56.4,29.96,WNW,292,4.0,16.0,91,0.00,,---,0.00,VWS V14.01,2013-09-03 14:20:00,
2013-09-03 10:25:00,59.0,56.4,29.96,NW,315,3.0,13.0,91,0.00,,---,0.00,VWS V14.01,2013-09-03 14:25:00,
2013-09-03 10:31:00,59.0,56.4,29.95,West,270,10.0,15.0,91,0.00,,---,0.00,VWS V14.01,2013-09-03 14:31:00,
2013-09-03 10:36:00,60.0,56.8,29.96,NW,315,5.0,15.0,89,0.00,,---,0.00,VWS V14.01,2013-09-03 14:36:00,
2013-09-03 10:41:00,61.0,57.4,29.96,NNE,22,3.0,15.0,88,0.00,,---,0.00,VWS V14.01,2013-09-03 14:41:00,
2013-09-03 10:46:00,61.0,56.8,29.96,West,270,5.0,13.0,86,0.00,,---,0.00,VWS V14.01,2013-09-03 14:46:00,
2013-09-03 10:51:00,60.0,55.5,29.96,WNW,292,11.0,15.0,85,0.00,,---,0.00,VWS V14.01,2013-09-03 14:51:00,
2013-09-03 10:56:00,60.0,55.5,29.96,West,270,6.0,16.0,85,0.00,,---,0.00,VWS V14.01,2013-09-03 14:56:00,
2013-09-03 11:01:00,60.0,56.1,29.96,West,270,13.0,13.0,87,0.00,,---,0.00,VWS V14.01,2013-09-03 15:01:00,
2013-09-03 11:07:00,59.0,56.1,29.97,WNW,292,14.0,14.0,90,0.00,,---,0.00,VWS V14.01,2013-09-03 15:07:00,
2013-09-03 11:12:00,59.0,56.4,29.97,WSW,248,9.0,14.0,91,0.00,,---,0.00,VWS V14.01,2013-09-03 15:12:00,
2013-09-03 11:17:00,58.0,55.7,29.97,West,270,8.0,15.0,92,0.01,,---,0.01,VWS V14.01,2013-09-03 15:17:00,
2013-09-03 11:22:00,58.0,56.0,29.97,SW,225,5.0,12.0,93,0.01,,---,0.01,VWS V14.01,2013-09-03 15:22:00,
2013-09-03 11:27:00,58.0,56.0,29.97,West,270,7.0,13.0,93,0.01,,---,0.01,VWS V14.01,2013-09-03 15:27:00,
2013-09-03 11:32:00,58.0,56.3,29.97,WNW,292,9.0,13.0,94,0.01,,---,0.01,VWS V14.01,2013-09-03 15:32:00,
2013-09-03 11:37:00,58.0,56.3,29.97,West,270,11.0,14.0,94,0.01,,---,0.01,VWS V14.01,2013-09-03 15:37:00,
2013-09-03 11:43:00,58.0,56.3,29.97,WNW,292,6.0,12.0,94,0.01,,---,0.01,VWS V14.01,2013-09-03 15:43:00,
2013-09-03 11:48:00,58.0,56.3,29.97,WSW,248,11.0,13.0,94,0.02,,---,0.02,VWS V14.01,2013-09-03 15:48:00,
2013-09-03 11:53:00,58.0,56.3,29.97,West,270,11.0,16.0,94,0.02,,---,0.02,VWS V14.01,2013-09-03 15:53:00,
2013-09-03 11:58:00,58.0,56.3,29.97,West,270,3.0,16.0,94,0.02,,---,0.02,VWS V14.01,2013-09-03 15:58:00,
2013-09-03 12:03:00,58.0,56.3,29.97,SW,225,6.0,11.0,94,0.02,,---,0.02,VWS V14.01,2013-09-03 16:03:00,
2013-09-03 12:08:00,58.0,56.3,29.98,WNW,292,8.0,11.0,94,0.02,,---,0.02,VWS V14.01,2013-09-03 16:08:00,
2013-09-03 12:13:00,59.0,57.3,29.97,WNW,292,6.0,11.0,94,0.02,,---,0.02,VWS V14.01,2013-09-03 16:13:00,
2013-09-03 12:19:00,59.0,57.3,29.97,West,270,9.0,11.0,94,0.02,,---,0.02,VWS V14.01,2013-09-03 16:19:00,
2013-09-03 12:24:00,59.0,57.3,29.97,West,270,6.0,13.0,94,0.01,,---,0.02,VWS V14.01,2013-09-03 16:24:00,
2013-09-03 12:29:00,60.0,58.3,29.97,WSW,248,6.0,13.0,94,0.01,,---,0.02,VWS V14.01,2013-09-03 16:29:00,
2013-09-03 12:34:00,60.0,57.7,29.97,WSW,248,11.0,13.0,92,0.01,,---,0.02,VWS V14.01,2013-09-03 16:34:00,
2013-09-03 12:39:00,60.0,57.1,29.97,West,270,8.0,16.0,90,0.01,,---,0.02,VWS V14.01,2013-09-03 16:39:00,
2013-09-03 12:44:00,61.0,57.7,29.97,West,270,9.0,16.0,89,0.01,,---,0.02,VWS V14.01,2013-09-03 16:44:00,
2013-09-03 12:50:00,61.0,56.8,29.97,WSW,248,11.0,16.0,86,0.01,,---,0.02,VWS V14.01,2013-09-03 16:50:00,
2013-09-03 12:55:00,61.0,57.1,29.97,WNW,292,9.0,16.0,87,0.01,,---,0.02,VWS V14.01,2013-09-03 16:55:00,
2013-09-03 13:00:00,60.0,55.8,29.97,WNW,292,14.0,19.0,86,0.01,,---,0.02,VWS V14.01,2013-09-03 17:00:00,
2013-09-03 13:05:00,60.0,56.1,29.97,WNW,292,9.0,18.0,87,0.00,,---,0.02,VWS V14.01,2013-09-03 17:05:00,
2013-09-03 13:10:00,61.0,56.5,29.97,WNW,292,2.0,18.0,85,0.00,,---,0.02,VWS V14.01,2013-09-03 17:10:00,
2013-09-03 13:15:00,61.0,56.8,29.97,WNW,292,5.0,18.0,86,0.00,,---,0.02,VWS V14.01,2013-09-03 17:15:00,
2013-09-03 13:21:00,60.0,55.2,29.97,WSW,248,11.0,21.0,84,0.00,,---,0.02,VWS V14.01,2013-09-03 17:21:00,
2013-09-03 13:26:00,60.0,55.8,29.97,West,270,12.0,14.0,86,0.00,,---,0.02,VWS V14.01,2013-09-03 17:26:00,
2013-09-03 13:31:00,61.0,56.5,29.97,WNW,292,13.0,14.0,85,0.00,,---,0.02,VWS V14.01,2013-09-03 17:31:00,
2013-09-03 13:36:00,61.0,56.8,29.98,WSW,248,3.0,14.0,86,0.00,,---,0.02,VWS V14.01,2013-09-03 17:36:00,
2013-09-03 13:41:00,61.0,56.5,29.97,WNW,292,10.0,14.0,85,0.00,,---,0.02,VWS V14.01,2013-09-03 17:41:00,
2013-09-03 13:46:00,61.0,56.8,29.97,West,270,5.0,14.0,86,0.00,,---,0.02,VWS V14.01,2013-09-03 17:46:00,
2013-09-03 13:51:00,60.0,56.4,29.97,WNW,292,10.0,15.0,88,0.00,,---,0.02,VWS V14.01,2013-09-03 17:51:00,
2013-09-03 13:56:00,60.0,57.1,29.97,West,270,8.0,15.0,90,0.00,,---,0.02,VWS V14.01,2013-09-03 17:56:00,
2013-09-03 14:01:00,61.0,58.7,29.97,West,270,8.0,10.0,92,0.00,,---,0.02,VWS V14.01,2013-09-03 18:01:00,
2013-09-03 14:07:00,61.0,58.4,29.97,NNW,338,9.0,12.0,91,0.00,,---,0.02,VWS V14.01,2013-09-03 18:07:00,
2013-09-03 14:12:00,61.0,58.0,29.97,WNW,292,9.0,13.0,90,0.00,,---,0.02,VWS V14.01,2013-09-03 18:12:00,
2013-09-03 14:17:00,61.0,57.7,29.97,West,270,6.0,13.0,89,0.00,,---,0.02,VWS V14.01,2013-09-03 18:17:00,
2013-09-03 14:22:00,61.0,57.4,29.97,WSW,248,8.0,9.0,88,0.00,,---,0.02,VWS V14.01,2013-09-03 18:22:00,
2013-09-03 14:27:00,61.0,56.8,29.97,WNW,292,14.0,14.0,86,0.00,,---,0.02,VWS V14.01,2013-09-03 18:27:00,
2013-09-03 14:32:00,62.0,57.5,29.97,West,270,5.0,14.0,85,0.00,,---,0.02,VWS V14.01,2013-09-03 18:32:00,
2013-09-03 14:38:00,62.0,57.1,29.97,WNW,292,10.0,16.0,84,0.00,,---,0.02,VWS V14.01,2013-09-03 18:38:00,
2013-09-03 14:43:00,62.0,57.8,29.97,WNW,292,6.0,11.0,86,0.00,,---,0.02,VWS V14.01,2013-09-03 18:43:00,
2013-09-03 14:48:00,61.0,57.4,29.97,WNW,292,8.0,13.0,88,0.00,,---,0.02,VWS V14.01,2013-09-03 18:48:00,
2013-09-03 14:53:00,61.0,57.7,29.98,WNW,292,11.0,13.0,89,0.01,,---,0.03,VWS V14.01,2013-09-03 18:53:00,
2013-09-03 14:58:00,60.0,57.4,29.98,West,270,8.0,14.0,91,0.01,,---,0.03,VWS V14.01,2013-09-03 18:58:00,
2013-09-03 15:03:00,60.0,57.7,29.98,WNW,292,9.0,13.0,92,0.01,,---,0.03,VWS V14.01,2013-09-03 19:03:00,
2013-09-03 15:09:00,60.0,57.4,29.98,West,270,11.0,13.0,91,0.01,,---,0.03,VWS V14.01,2013-09-03 19:09:00,
2013-09-03 15:14:00,60.0,57.7,29.98,West,270,10.0,14.0,92,0.01,,---,0.03,VWS V14.01,2013-09-03 19:14:00,
2013-09-03 15:19:00,60.0,57.7,29.97,WNW,292,3.0,14.0,92,0.01,,---,0.03,VWS V14.01,2013-09-03 19:19:00,
2013-09-03 15:24:00,60.0,57.7,29.97,WSW,248,7.0,11.0,92,0.01,,---,0.03,VWS V14.01,2013-09-03 19:24:00,
2013-09-03 15:29:00,60.0,57.7,29.97,WNW,292,10.0,13.0,92,0.01,,---,0.03,VWS V14.01,2013-09-03 19:29:00,
2013-09-03 15:34:00,60.0,57.4,29.97,WNW,292,6.0,13.0,91,0.01,,---,0.03,VWS V14.01,2013-09-03 19:34:00,
2013-09-03 15:40:00,60.0,57.4,29.97,West,270,8.0,13.0,91,0.01,,---,0.03,VWS V14.01,2013-09-03 19:40:00,
2013-09-03 15:45:00,60.0,57.7,29.97,West,270,3.0,11.0,92,0.01,,---,0.03,VWS V14.01,2013-09-03 19:45:00,
2013-09-03 15:50:00,60.0,57.7,29.97,West,270,3.0,11.0,92,0.01,,---,0.03,VWS V14.01,2013-09-03 19:50:00,
2013-09-03 15:55:00,60.0,57.7,29.97,WNW,292,9.0,11.0,92,0.01,,---,0.03,VWS V14.01,2013-09-03 19:55:00,
2013-09-03 16:00:00,60.0,57.4,29.97,WNW,292,10.0,14.0,91,0.01,,---,0.03,VWS V14.01,2013-09-03 20:00:00,
2013-09-03 16:05:00,60.0,57.7,29.97,WNW,292,11.0,13.0,92,0.00,,---,0.03,VWS V14.01,2013-09-03 20:05:00,
2013-09-03 16:11:00,60.0,57.7,29.97,WNW,292,10.0,18.0,92,0.00,,---,0.03,VWS V14.01,2013-09-03 20:11:00,
2013-09-03 16:16:00,60.0,58.0,29.97,WSW,248,9.0,18.0,93,0.01,,---,0.04,VWS V14.01,2013-09-03 20:16:00,
2013-09-03 16:21:00,60.0,58.0,29.98,WNW,292,7.0,18.0,93,0.01,,---,0.04,VWS V14.01,2013-09-03 20:21:00,
2013-09-03 16:26:00,60.0,58.0,29.98,WNW,292,13.0,13.0,93,0.01,,---,0.04,VWS V14.01,2013-09-03 20:26:00,
2013-09-03 16:31:00,60.0,57.7,29.98,WNW,292,6.0,14.0,92,0.01,,---,0.04,VWS V14.01,2013-09-03 20:31:00,
2013-09-03 16:36:00,60.0,57.7,29.98,WNW,292,8.0,14.0,92,0.01,,---,0.04,VWS V14.01,2013-09-03 20:36:00,
2013-09-03 16:41:00,61.0,58.7,29.98,West,270,4.0,5.0,92,0.01,,---,0.04,VWS V14.01,2013-09-03 20:41:00,
2013-09-03 16:47:00,61.0,58.4,29.98,WNW,292,8.0,9.0,91,0.01,,---,0.04,VWS V14.01,2013-09-03 20:47:00,
2013-09-03 16:52:00,61.0,58.0,29.98,WNW,292,8.0,10.0,90,0.01,,---,0.04,VWS V14.01,2013-09-03 20:52:00,
2013-09-03 16:57:00,61.0,57.7,29.98,WNW,292,6.0,14.0,89,0.01,,---,0.04,VWS V14.01,2013-09-03 20:57:00,
2013-09-03 17:02:00,61.0,57.7,29.98,WNW,292,4.0,10.0,89,0.01,,---,0.04,VWS V14.01,2013-09-03 21:02:00,
2013-09-03 17:07:00,61.0,57.7,29.98,WNW,292,3.0,11.0,89,0.01,,---,0.04,VWS V14.01,2013-09-03 21:07:00,
2013-09-03 17:13:00,61.0,57.4,29.98,West,270,11.0,14.0,88,0.01,,---,0.04,VWS V14.01,2013-09-03 21:13:00,
2013-09-03 17:18:00,62.0,58.4,29.98,NW,315,3.0,14.0,88,0.01,,---,0.04,VWS V14.01,2013-09-03 21:18:00,
2013-09-03 17:23:00,62.0,58.4,29.98,WNW,292,5.0,8.0,88,0.00,,---,0.04,VWS V14.01,2013-09-03 21:23:00,
2013-09-03 17:28:00,62.0,58.1,29.98,West,270,5.0,14.0,87,0.00,,---,0.04,VWS V14.01,2013-09-03 21:28:00,
2013-09-03 17:33:00,62.0,58.1,29.99,WSW,248,4.0,16.0,87,0.00,,---,0.04,VWS V14.01,2013-09-03 21:33:00,
2013-09-03 17:38:00,62.0,58.1,29.99,West,270,10.0,16.0,87,0.00,,---,0.04,VWS V14.01,2013-09-03 21:38:00,
2013-09-03 17:43:00,62.0,58.1,29.99,NW,315,11.0,11.0,87,0.00,,---,0.04,VWS V14.01,2013-09-03 21:43:00,
2013-09-03 17:49:00,62.0,57.8,29.99,WNW,292,7.0,16.0,86,0.00,,---,0.04,VWS V14.01,2013-09-03 21:49:00,
2013-09-03 17:54:00,62.0,57.8,29.99,WNW,292,7.0,16.0,86,0.00,,---,0.04,VWS V14.01,2013-09-03 21:54:00,
2013-09-03 17:59:00,62.0,57.1,29.99,WNW,292,14.0,18.0,84,0.00,,---,0.04,VWS V14.01,2013-09-03 21:59:00,
2013-09-03 18:04:00,62.0,57.5,29.99,NNW,338,1.0,13.0,85,0.00,,---,0.04,VWS V14.01,2013-09-03 22:04:00,
2013-09-03 18:09:00,61.0,56.5,29.99,WNW,292,6.0,14.0,85,0.00,,---,0.04,VWS V14.01,2013-09-03 22:09:00,
2013-09-03 18:14:00,61.0,56.8,30.00,WNW,292,9.0,17.0,86,0.00,,---,0.04,VWS V14.01,2013-09-03 22:14:00,
2013-09-03 18:19:00,61.0,57.4,29.99,WNW,292,10.0,17.0,88,0.00,,---,0.04,VWS V14.01,2013-09-03 22:19:00,
2013-09-03 18:24:00,61.0,57.4,29.99,WNW,292,8.0,10.0,88,0.00,,---,0.04,VWS V14.01,2013-09-03 22:24:00,
2013-09-03 18:29:00,61.0,57.7,29.99,WSW,248,1.0,14.0,89,0.00,,---,0.04,VWS V14.01,2013-09-03 22:29:00,
2013-09-03 18:34:00,61.0,57.7,29.99,WNW,292,2.0,14.0,89,0.00,,---,0.04,VWS V14.01,2013-09-03 22:34:00,
2013-09-03 18:40:00,61.0,57.7,29.99,West,270,2.0,14.0,89,0.00,,---,0.04,VWS V14.01,2013-09-03 22:40:00,
2013-09-03 18:45:00,61.0,57.4,29.99,WNW,292,2.0,14.0,88,0.00,,---,0.04,VWS V14.01,2013-09-03 22:45:00,
2013-09-03 18:50:00,61.0,57.4,29.99,WNW,292,7.0,14.0,88,0.00,,---,0.04,VWS V14.01,2013-09-03 22:50:00,
2013-09-03 18:55:00,61.0,57.4,29.99,WNW,292,10.0,14.0,88,0.00,,---,0.04,VWS V14.01,2013-09-03 22:55:00,
2013-09-03 19:00:00,61.0,57.1,30.00,NW,315,5.0,14.0,87,0.00,,---,0.04,VWS V14.01,2013-09-03 23:00:00,
2013-09-03 19:05:00,61.0,57.1,30.00,NNW,338,8.0,16.0,87,0.00,,---,0.04,VWS V14.01,2013-09-03 23:05:00,
2013-09-03 19:10:00,61.0,57.1,29.99,West,270,11.0,16.0,87,0.00,,---,0.04,VWS V14.01,2013-09-03 23:10:00,
2013-09-03 19:15:00,62.0,58.1,30.00,WNW,292,5.0,18.0,87,0.00,,---,0.04,VWS V14.01,2013-09-03 23:15:00,
2013-09-03 19:21:00,61.0,57.1,30.00,NNW,338,2.0,18.0,87,0.00,,---,0.04,VWS V14.01,2013-09-03 23:21:00,
2013-09-03 19:26:00,62.0,58.1,29.99,NNW,338,5.0,13.0,87,0.00,,---,0.04,VWS V14.01,2013-09-03 23:26:00,
2013-09-03 19:31:00,61.0,57.1,29.99,WNW,292,6.0,13.0,87,0.00,,---,0.04,VWS V14.01,2013-09-03 23:31:00,
2013-09-03 19:36:00,61.0,56.8,30.00,WNW,292,10.0,14.0,86,0.00,,---,0.04,VWS V14.01,2013-09-03 23:36:00,
2013-09-03 19:41:00,61.0,57.1,30.00,NW,315,4.0,5.0,87,0.00,,---,0.04,VWS V14.01,2013-09-03 23:41:00,
2013-09-03 19:47:00,61.0,57.1,30.00,WNW,292,6.0,12.0,87,0.00,,---,0.04,VWS V14.01,2013-09-03 23:47:00,
2013-09-03 19:52:00,61.0,57.1,30.00,NNW,338,5.0,12.0,87,0.00,,---,0.04,VWS V14.01,2013-09-03 23:52:00,
2013-09-03 19:57:00,61.0,56.8,30.00,West,270,6.0,12.0,86,0.00,,---,0.04,VWS V14.01,2013-09-03 23:57:00,
2013-09-03 20:02:00,61.0,56.8,30.00,West,270,6.0,9.0,86,0.00,,---,0.04,VWS V14.01,2013-09-04 00:02:00,
2013-09-03 20:07:00,61.0,57.1,30.01,NW,315,3.0,10.0,87,0.00,,---,0.04,VWS V14.01,2013-09-04 00:07:00,
2013-09-03 20:12:00,61.0,57.1,30.01,WNW,292,8.0,10.0,87,0.00,,---,0.04,VWS V14.01,2013-09-04 00:12:00,
2013-09-03 20:17:00,61.0,57.1,30.01,WNW,292,4.0,10.0,87,0.00,,---,0.04,VWS V14.01,2013-09-04 00:17:00,
2013-09-03 20:22:00,61.0,57.1,30.02,West,270,3.0,6.0,87,0.00,,---,0.04,VWS V14.01,2013-09-04 00:22:00,
2013-09-03 20:28:00,61.0,57.1,30.02,West,270,4.0,7.0,87,0.00,,---,0.04,VWS V14.01,2013-09-04 00:28:00,
2013-09-03 20:33:00,61.0,57.1,30.02,NW,315,3.0,7.0,87,0.00,,---,0.04,VWS V14.01,2013-09-04 00:33:00,
2013-09-03 20:38:00,61.0,57.1,30.02,WNW,292,3.0,7.0,87,0.00,,---,0.04,VWS V14.01,2013-09-04 00:38:00,
2013-09-03 20:43:00,61.0,57.1,30.03,West,270,3.0,4.0,87,0.00,,---,0.04,VWS V14.01,2013-09-04 00:43:00,
2013-09-03 20:48:00,61.0,57.4,30.03,WSW,248,3.0,9.0,88,0.00,,---,0.04,VWS V14.01,2013-09-04 00:48:00,
2013-09-03 20:53:00,61.0,57.1,30.03,WSW,248,7.0,9.0,87,0.00,,---,0.04,VWS V14.01,2013-09-04 00:53:00,
2013-09-03 20:58:00,61.0,57.1,30.03,NW,315,3.0,9.0,87,0.00,,---,0.04,VWS V14.01,2013-09-04 00:58:00,
2013-09-03 21:03:00,61.0,57.4,30.03,WNW,292,4.0,5.0,88,0.00,,---,0.04,VWS V14.01,2013-09-04 01:03:00,
2013-09-03 21:08:00,61.0,57.1,30.03,West,270,4.0,6.0,87,0.00,,---,0.04,VWS V14.01,2013-09-04 01:08:00,
2013-09-03 21:13:00,60.0,56.1,30.03,WSW,248,5.0,6.0,87,0.00,,---,0.04,VWS V14.01,2013-09-04 01:13:00,
2013-09-03 21:18:00,60.0,56.4,30.03,WSW,248,5.0,6.0,88,0.00,,---,0.04,VWS V14.01,2013-09-04 01:18:00,
2013-09-03 21:24:00,60.0,56.4,30.03,West,270,5.0,6.0,88,0.00,,---,0.04,VWS V14.01,2013-09-04 01:24:00,
2013-09-03 21:29:00,60.0,56.4,30.03,WSW,248,5.0,6.0,88,0.00,,---,0.04,VWS V14.01,2013-09-04 01:29:00,
2013-09-03 21:34:00,59.0,55.5,30.03,WSW,248,3.0,6.0,88,0.00,,---,0.04,VWS V14.01,2013-09-04 01:34:00,
2013-09-03 21:39:00,59.0,55.8,30.03,WSW,248,3.0,6.0,89,0.00,,---,0.04,VWS V14.01,2013-09-04 01:39:00,
2013-09-03 21:44:00,59.0,55.8,30.04,West,270,5.0,5.0,89,0.00,,---,0.04,VWS V14.01,2013-09-04 01:44:00,
2013-09-03 21:49:00,59.0,55.8,30.04,SW,225,5.0,6.0,89,0.00,,---,0.04,VWS V14.01,2013-09-04 01:49:00,
2013-09-03 21:54:00,59.0,56.1,30.04,WSW,248,3.0,6.0,90,0.00,,---,0.04,VWS V14.01,2013-09-04 01:54:00,
2013-09-03 21:59:00,58.0,55.1,30.04,WSW,248,4.0,6.0,90,0.00,,---,0.04,VWS V14.01,2013-09-04 01:59:00,
2013-09-03 22:04:00,58.0,55.4,30.04,SW,225,1.0,5.0,91,0.00,,---,0.04,VWS V14.01,2013-09-04 02:04:00,
2013-09-03 22:09:00,58.0,55.4,30.04,SW,225,2.0,5.0,91,0.00,,---,0.04,VWS V14.01,2013-09-04 02:09:00,
2013-09-03 22:14:00,58.0,55.4,30.04,SW,225,3.0,5.0,91,0.00,,---,0.04,VWS V14.01,2013-09-04 02:14:00,
2013-09-03 22:20:00,58.0,55.4,30.04,West,270,4.0,5.0,91,0.00,,---,0.04,VWS V14.01,2013-09-04 02:20:00,
2013-09-03 22:25:00,57.0,54.7,30.04,SW,225,3.0,4.0,92,0.00,,---,0.04,VWS V14.01,2013-09-04 02:25:00,
2013-09-03 22:30:00,57.0,54.7,30.05,SW,225,1.0,6.0,92,0.00,,---,0.04,VWS V14.01,2013-09-04 02:30:00,
2013-09-03 22:35:00,57.0,54.7,30.05,SSW,202,2.0,6.0,92,0.00,,---,0.04,VWS V14.01,2013-09-04 02:35:00,
2013-09-03 22:40:00,57.0,54.7,30.04,SW,225,1.0,6.0,92,0.00,,---,0.04,VWS V14.01,2013-09-04 02:40:00,
2013-09-03 22:45:00,57.0,55.0,30.04,SW,225,1.0,3.0,93,0.00,,---,0.04,VWS V14.01,2013-09-04 02:45:00,
2013-09-03 22:50:00,57.0,55.0,30.04,SW,225,4.0,4.0,93,0.00,,---,0.04,VWS V14.01,2013-09-04 02:50:00,
2013-09-03 22:55:00,57.0,55.0,30.05,SW,225,2.0,4.0,93,0.00,,---,0.04,VWS V14.01,2013-09-04 02:55:00,
2013-09-03 23:00:00,57.0,55.0,30.05,SSW,202,1.0,4.0,93,0.00,,---,0.04,VWS V14.01,2013-09-04 03:00:00,
2013-09-03 23:05:00,57.0,55.0,30.05,SW,225,2.0,3.0,93,0.00,,---,0.04,VWS V14.01,2013-09-04 03:05:00,
2013-09-03 23:10:00,57.0,55.3,30.05,SW,225,2.0,3.0,94,0.00,,---,0.04,VWS V14.01,2013-09-04 03:10:00,
2013-09-03 23:16:00,57.0,55.3,30.05,SW,225,1.0,4.0,94,0.00,,---,0.04,VWS V14.01,2013-09-04 03:16:00,
2013-09-03 23:21:00,56.0,54.3,30.05,SW,225,1.0,4.0,94,0.00,,---,0.04,VWS V14.01,2013-09-04 03:21:00,
2013-09-03 23:26:00,56.0,54.3,30.06,SW,225,1.0,3.0,94,0.00,,---,0.04,VWS V14.01,2013-09-04 03:26:00,
2013-09-03 23:31:00,56.0,54.3,30.06,SW,225,3.0,4.0,94,0.00,,---,0.04,VWS V14.01,2013-09-04 03:31:00,
2013-09-03 23:36:00,56.0,54.3,30.06,SW,225,2.0,5.0,94,0.00,,---,0.04,VWS V14.01,2013-09-04 03:36:00,
2013-09-03 23:41:00,56.0,54.3,30.06,WSW,248,1.0,5.0,94,0.00,,---,0.04,VWS V14.01,2013-09-04 03:41:00,
2013-09-03 23:46:00,56.0,54.3,30.06,WSW,248,3.0,4.0,94,0.00,,---,0.04,VWS V14.01,2013-09-04 03:46:00,
2013-09-03 23:51:00,56.0,54.3,30.06,SW,225,1.0,4.0,94,0.00,,---,0.04,VWS V14.01,2013-09-04 03:51:00,
2013-09-03 23:56:00,56.0,54.6,30.06,SW,225,1.0,4.0,95,0.00,,---,0.04,VWS V14.01,2013-09-04 03:56:00,